Date String (YYYY-MM-DD hh:mm:ss) UTC,Instrument flags,absolute air pressure of the measurement (hPa),sample flow rate (lpm),inlet stack bypass flow (lpm),air temperature of the measurement (°C),ambient temperature measured by the external sensor (°C),aerosol sample conditioner tube jacket temperature (°C),OPC LED temperature (°C),internal box temperature (°C),relative humidity of the measurement (%),span deviation,mass concentration of particles derived from Lorenz-Mie calculation of OPC scattering (μg/m³),mass concentration of particles derived from Lorenz-Mie calculation of OPC scattering (μg/m³),mass concentration of particles derived from Lorenz-Mie calculation of OPC scattering (μg/m³)
DateTimeUTC,F1_M11,P_M11,Q1_M11,Q2_M11,T1_M11,T2_M11,T3_M11,T4_M11,T5_M11,U1_M11,ZSPAN_M11,X0_M11,X2_M11,X1_M11
2024-03-26 12:00:00,SystemResetWarning,0818.9,5.00,000.00,018.8,018.2,000.0,027.4,020.5,13.7,0003.5,0012.82,0009.76,0009.49
2024-03-26 12:01:00,SystemResetWarning,0818.9,5.00,000.00,018.8,018.0,000.0,027.4,020.4,13.7,0003.0,0012.56,0009.75,0009.50
2024-03-26 12:02:00,SystemResetWarning,0819.0,4.99,000.00,018.7,017.8,000.0,027.3,020.3,13.8,0002.5,0012.46,0009.77,0009.53
2024-03-26 12:03:00,SystemResetWarning,0819.0,5.00,000.00,018.6,017.7,000.0,027.3,020.2,13.9,0002.6,0012.69,0009.78,0009.55
2024-03-26 12:04:00,SystemResetWarning,0819.0,5.00,000.00,018.5,017.5,000.0,027.3,020.1,13.9,0002.7,0013.12,0009.77,0009.54
2024-03-26 12:05:00,SystemResetWarning,0819.0,5.01,000.00,018.5,017.4,000.0,027.3,020.0,14.0,0002.5,0014.33,0009.77,0009.55
2024-03-26 12:06:00,SystemResetWarning,0819.0,5.01,000.00,018.4,017.5,000.0,027.3,020.1,14.1,0002.1,0014.06,0009.78,0009.56
2024-03-26 12:07:00,SystemResetWarning,0819.0,5.00,000.00,018.6,018.4,000.0,027.4,020.7,14.0,0001.3,0013.78,0009.76,0009.57
2024-03-26 12:08:00,SystemResetWarning,0819.1,5.00,000.00,018.8,019.1,000.0,027.5,021.1,13.8,0001.1,0013.55,0009.78,0009.61
2024-03-26 12:09:00,SystemResetWarning,0819.1,4.99,000.00,018.9,018.9,000.0,027.4,021.0,13.7,0001.4,0013.77,0009.81,0009.63
2024-03-26 12:10:00,SystemResetWarning,0819.3,5.00,000.00,018.8,018.6,000.0,027.4,020.7,13.7,0001.5,0013.78,0009.83,0009.65
2024-03-26 12:11:00,SystemResetWarning,0819.1,5.00,000.00,018.8,018.3,000.0,027.4,020.6,13.8,0002.1,0013.79,0009.84,0009.66
2024-03-26 12:12:00,SystemResetWarning,0819.0,5.00,000.00,018.7,018.1,000.0,027.3,020.5,13.8,0001.6,0013.81,0009.86,0009.67
2024-03-26 12:13:00,SystemResetWarning,0819.0,5.01,000.00,018.7,017.9,000.0,027.3,020.3,13.9,0001.6,0013.77,0009.84,0009.66
2024-03-26 12:14:00,SystemResetWarning,0819.0,4.99,000.00,018.6,017.7,000.0,027.3,020.3,13.9,0001.5,0013.62,0009.87,0009.66
2024-03-26 12:15:00,SystemResetWarning,0819.0,5.01,000.00,018.6,017.6,000.0,027.3,020.2,14.0,0002.0,0013.28,0009.90,0009.69
2024-03-26 12:16:00,SystemResetWarning,0819.0,5.01,000.00,018.5,017.5,000.0,027.3,020.1,14.0,0002.1,0011.89,0009.93,0009.71
2024-03-26 12:17:00,SystemResetWarning,0819.0,5.00,000.00,018.5,017.4,000.0,027.3,020.1,14.1,0001.8,0011.89,0009.95,0009.72
2024-03-26 12:18:00,SystemResetWarning,0819.1,5.00,000.00,018.5,017.8,000.0,027.3,020.3,14.1,0001.8,0012.24,0009.97,0009.74
2024-03-26 12:19:00,SystemResetWarning,0819.2,4.99,000.00,018.7,018.7,000.0,027.4,020.9,14.0,0001.4,0012.49,0010.02,0009.78
2024-03-26 12:20:00,SystemResetWarning,0819.2,5.00,000.00,018.9,019.1,000.0,027.4,021.1,13.8,0001.5,0012.36,0010.07,0009.82
2024-03-26 12:21:00,SystemResetWarning,0819.2,4.99,000.00,018.9,018.9,000.0,027.4,021.0,13.7,0001.7,0012.54,0010.16,0009.89
2024-03-26 12:22:00,SystemResetWarning,0819.1,4.99,000.00,018.9,018.6,000.0,027.4,020.8,13.7,0001.1,0012.91,0010.24,0009.95
2024-03-26 12:23:00,SystemResetWarning,0819.1,5.01,000.00,018.8,018.4,000.0,027.4,020.6,13.7,0001.3,0013.18,0010.31,0010.02
2024-03-26 12:24:00,SystemResetWarning,0819.1,5.01,000.00,018.8,018.2,000.0,027.4,020.5,13.8,0001.7,0013.26,0010.39,0010.10
2024-03-26 12:25:00,SystemResetWarning,0819.1,5.01,000.00,018.7,018.0,000.0,027.3,020.4,13.8,0001.3,0013.32,0010.45,0010.17
2024-03-26 12:26:00,SystemResetWarning,0819.0,5.00,000.00,018.7,017.9,000.0,027.3,020.3,13.9,0001.0,0013.32,0010.52,0010.23
2024-03-26 12:27:00,SystemResetWarning,0819.0,5.00,000.00,018.6,017.7,000.0,027.3,020.3,14.0,0001.3,0013.46,0010.56,0010.28
2024-03-26 12:28:00,SystemResetWarning,0819.1,5.00,000.00,018.6,017.8,000.0,027.3,018.9,14.0,0002.2,0014.20,0010.58,0010.32
2024-03-26 12:29:00,SystemResetWarning,0819.1,5.00,000.00,018.5,017.5,000.0,027.3,020.1,14.0,0002.4,0014.22,0010.62,0010.36
2024-03-26 12:30:00,SystemResetWarning,0819.3,4.99,000.00,018.5,017.6,000.0,027.3,020.2,14.0,0003.2,0013.80,0010.64,0010.38
2024-03-26 12:31:00,SystemResetWarning,0819.3,5.01,000.00,018.6,018.5,000.0,027.4,020.8,13.9,0002.7,0013.85,0010.64,0010.37
2024-03-26 12:32:00,SystemResetWarning,0819.3,5.00,000.00,018.9,019.3,000.0,027.5,021.3,13.7,0002.7,0013.70,0010.61,0010.36
2024-03-26 12:33:00,SystemResetWarning,0819.1,4.99,000.00,019.1,019.5,000.0,027.5,021.4,13.6,0001.5,0013.52,0010.57,0010.33
2024-03-26 12:34:00,SystemResetWarning,0819.1,5.00,000.00,019.1,019.3,000.0,027.5,021.2,13.6,0000.0,0013.19,0010.53,0010.30
2024-03-26 12:35:00,SystemResetWarning,0819.1,5.00,000.00,019.0,019.0,000.0,027.4,021.0,13.6,0000.0,0013.40,0010.54,0010.28
2024-03-26 12:36:00,SystemResetWarning,0819.1,5.00,000.00,019.0,018.7,000.0,027.4,020.8,13.6,0000.0,0013.39,0010.52,0010.26
2024-03-26 12:37:00,SystemResetWarning,0819.3,5.00,000.00,018.9,018.5,000.0,027.4,020.7,13.6,0000.7,0013.42,0010.50,0010.24
2024-03-26 12:38:00,SystemResetWarning,0819.3,4.99,000.00,018.9,018.2,000.0,027.4,020.6,13.7,0002.1,0013.40,0010.48,0010.22
2024-03-26 12:39:00,SystemResetWarning,0819.2,5.00,000.00,018.8,018.0,000.0,027.4,020.5,13.7,0001.6,0012.70,0010.50,0010.22
2024-03-26 12:40:00,SystemResetWarning,0819.2,5.00,000.00,018.8,017.9,000.0,027.4,020.4,13.8,0000.0,0012.44,0010.50,0010.23
2024-03-26 12:41:00,SystemResetWarning,0819.2,5.00,000.00,018.7,017.8,000.0,027.4,020.3,13.8,0000.0,0012.43,0010.49,0010.23
2024-03-26 12:42:00,SystemResetWarning,0819.1,5.00,000.00,018.7,017.6,000.0,027.4,020.3,13.9,0000.2,0012.38,0010.49,0010.24
2024-03-26 12:43:00,SystemResetWarning,0819.2,5.00,000.00,018.6,017.5,000.0,027.4,020.2,13.9,0001.5,0012.48,0010.52,0010.24
2024-03-26 12:44:00,SystemResetWarning,0819.1,5.00,000.00,018.5,017.5,000.0,027.3,020.2,13.9,0001.5,0012.51,0010.54,0010.27
2024-03-26 12:45:00,SystemResetWarning,0819.2,5.00,000.00,018.5,017.4,000.0,027.3,020.1,13.9,0001.6,0012.58,0010.58,0010.30
2024-03-26 12:46:00,SystemResetWarning,0819.1,5.01,000.00,018.5,018.0,000.0,027.4,020.5,14.0,0001.5,0013.00,0010.60,0010.31
2024-03-26 12:47:00,SystemResetWarning,0819.2,4.99,000.00,018.8,018.9,000.0,027.5,021.0,13.8,0001.4,0013.66,0010.64,0010.34
2024-03-26 12:48:00,SystemResetWarning,0819.2,4.99,000.00,018.9,019.0,000.0,027.5,021.1,13.5,0001.4,0013.97,0010.68,0010.37
2024-03-26 12:49:00,SystemResetWarning,0819.1,4.99,000.00,018.9,018.7,000.0,027.4,020.9,13.4,0001.2,0014.02,0010.69,0010.37
2024-03-26 12:50:00,SystemResetWarning,0819.2,5.01,000.00,018.9,018.5,000.0,027.4,020.7,13.4,0001.0,0014.01,0010.66,0010.35
2024-03-26 12:51:00,SystemResetWarning,0819.1,5.01,000.00,018.8,018.3,000.0,027.4,020.6,13.5,0000.5,0013.96,0010.62,0010.31
2024-03-26 12:52:00,SystemResetWarning,0819.1,5.00,000.00,018.7,018.1,000.0,027.4,020.4,13.5,-000.2,0013.91,0010.57,0010.25
2024-03-26 12:53:00,SystemResetWarning,0819.2,5.00,000.00,018.7,017.9,000.0,027.4,020.3,13.6,-000.3,0013.80,0010.51,0010.22
2024-03-26 12:54:00,SystemResetWarning,0819.1,4.99,000.00,018.6,017.8,000.0,027.3,020.2,13.7,0000.0,0013.80,0010.49,0010.20
2024-03-26 12:55:00,SystemResetWarning,0819.3,4.99,000.00,018.6,017.6,000.0,027.3,020.2,13.7,0000.0,0013.57,0010.44,0010.15
2024-03-26 12:56:00,SystemResetWarning,0819.2,5.01,000.00,018.5,017.5,000.0,027.3,020.1,13.8,0000.0,0013.52,0010.37,0010.09
2024-03-26 12:57:00,SystemResetWarning,0819.3,5.01,000.00,018.4,017.5,000.0,027.3,020.1,13.8,-000.1,0013.21,0010.31,0010.06
2024-03-26 12:58:00,SystemResetWarning,0819.3,5.01,000.00,018.6,018.3,000.0,027.4,020.6,13.8,-000.2,0012.34,0010.25,0010.01
2024-03-26 12:59:00,SystemResetWarning,0819.4,4.98,000.00,018.8,019.2,000.0,027.5,021.2,13.6,-000.0,0011.78,0010.15,0009.94
